Time,TemperatureF,DewpointF,PressureIn,WindDirection,WindDirectionDegrees,WindSpeedMPH,WindSpeedGustMPH,Humidity,HourlyPrecipIn,Conditions,Clouds,dailyrainin,SoftwareType,DateUTC
2013-08-30 00:01:00,69.8,68.3,29.98,NE,55,0.0,0.0,95,0.00,,CLR,0.00,VWS V14.01,2013-08-30 04:01:00,
2013-08-30 00:02:00,69.7,67.9,29.98,NE,56,0.0,0.0,94,0.00,,CLR,0.00,VWS V14.01,2013-08-30 04:02:00,
2013-08-30 00:07:00,69.8,68.3,29.98,ENE,76,0.0,0.0,95,0.00,,CLR,0.00,VWS V14.01,2013-08-30 04:07:00,
2013-08-30 00:12:00,69.8,68.3,29.98,ENE,77,0.0,0.0,95,0.00,,CLR,0.00,VWS V14.01,2013-08-30 04:12:00,
2013-08-30 00:17:00,69.7,68.2,29.98,East,81,0.0,0.0,95,0.00,,CLR,0.00,VWS V14.01,2013-08-30 04:17:00,
2013-08-30 00:22:00,69.6,68.1,29.98,ESE,105,0.0,3.0,95,0.00,,CLR,0.00,VWS V14.01,2013-08-30 04:22:00,
2013-08-30 00:27:00,69.6,68.4,29.99,East,90,1.0,3.0,96,0.00,,CLR,0.00,VWS V14.01,2013-08-30 04:27:00,
2013-08-30 00:32:00,69.6,68.1,29.98,East,92,0.0,0.0,95,0.00,,CLR,0.00,VWS V14.01,2013-08-30 04:32:00,
2013-08-30 00:37:00,69.4,67.9,29.98,East,92,0.0,0.0,95,0.00,,CLR,0.00,VWS V14.01,2013-08-30 04:37:00,
2013-08-30 00:42:00,69.2,67.7,29.98,East,92,0.0,0.0,95,0.00,,CLR,0.00,VWS V14.01,2013-08-30 04:42:00,
2013-08-30 00:47:00,68.9,67.4,29.98,East,92,0.0,0.0,95,0.00,,CLR,0.00,VWS V14.01,2013-08-30 04:47:00,
2013-08-30 00:52:00,68.7,67.2,29.98,NE,47,0.0,2.0,95,0.00,,CLR,0.00,VWS V14.01,2013-08-30 04:52:00,
2013-08-30 00:57:00,68.6,67.1,29.98,NNE,27,2.0,4.0,95,0.00,,CLR,0.00,VWS V14.01,2013-08-30 04:57:00,
2013-08-30 01:02:00,68.4,66.9,29.98,North,6,2.0,3.0,95,0.00,,CLR,0.00,VWS V14.01,2013-08-30 05:02:00,
2013-08-30 01:07:00,68.3,66.8,29.98,East,79,0.0,3.0,95,0.00,,CLR,0.00,VWS V14.01,2013-08-30 05:07:00,
2013-08-30 01:12:00,68.1,66.6,29.98,East,93,1.0,3.0,95,0.00,,CLR,0.00,VWS V14.01,2013-08-30 05:12:00,
2013-08-30 01:17:00,68.0,66.5,29.98,NE,47,0.0,3.0,95,0.00,,CLR,0.00,VWS V14.01,2013-08-30 05:17:00,
2013-08-30 01:22:00,67.8,66.3,29.98,NE,42,2.0,3.0,95,0.00,,CLR,0.00,VWS V14.01,2013-08-30 05:22:00,
2013-08-30 01:27:00,67.7,66.5,29.98,NE,36,0.0,3.0,96,0.00,,CLR,0.00,VWS V14.01,2013-08-30 05:27:00,
2013-08-30 01:32:00,67.6,66.4,29.98,NNE,25,1.0,1.0,96,0.00,,CLR,0.00,VWS V14.01,2013-08-30 05:32:00,
2013-08-30 01:37:00,67.5,66.3,29.97,NNE,25,0.0,1.0,96,0.00,,CLR,0.00,VWS V14.01,2013-08-30 05:37:00,
2013-08-30 01:42:00,67.4,66.2,29.97,East,84,0.0,1.0,96,0.00,,CLR,0.00,VWS V14.01,2013-08-30 05:42:00,
2013-08-30 01:47:00,67.3,66.1,29.97,East,83,0.0,1.0,96,0.00,,CLR,0.00,VWS V14.01,2013-08-30 05:47:00,
2013-08-30 01:52:00,67.2,66.0,29.97,NE,51,0.0,1.0,96,0.00,,CLR,0.00,VWS V14.01,2013-08-30 05:52:00,
2013-08-30 01:57:00,67.0,65.8,29.97,NNE,23,0.0,1.0,96,0.00,,CLR,0.00,VWS V14.01,2013-08-30 05:57:00,
2013-08-30 02:02:00,67.0,65.8,29.97,NE,34,1.0,4.0,96,0.00,,CLR,0.00,VWS V14.01,2013-08-30 06:02:00,
2013-08-30 02:07:00,66.9,65.7,29.97,NNE,23,1.0,4.0,96,0.00,,CLR,0.00,VWS V14.01,2013-08-30 06:07:00,
2013-08-30 02:12:00,66.8,65.6,29.97,NE,43,0.0,4.0,96,0.00,,CLR,0.00,VWS V14.01,2013-08-30 06:12:00,
2013-08-30 02:17:00,66.7,65.5,29.97,NE,39,0.0,4.0,96,0.00,,CLR,0.00,VWS V14.01,2013-08-30 06:17:00,
2013-08-30 02:22:00,66.6,65.4,29.97,NNE,19,1.0,4.0,96,0.00,,CLR,0.00,VWS V14.01,2013-08-30 06:22:00,
2013-08-30 02:27:00,66.4,65.2,29.97,NNE,26,1.0,4.0,96,0.00,,CLR,0.00,VWS V14.01,2013-08-30 06:27:00,
2013-08-30 02:32:00,66.3,65.1,29.97,NNE,19,0.0,0.0,96,0.00,,CLR,0.00,VWS V14.01,2013-08-30 06:32:00,
2013-08-30 02:37:00,66.2,65.0,29.97,NE,54,0.0,2.0,96,0.00,,CLR,0.00,VWS V14.01,2013-08-30 06:37:00,
2013-08-30 02:42:00,66.2,65.0,29.96,NNE,33,0.0,2.0,96,0.00,,CLR,0.00,VWS V14.01,2013-08-30 06:42:00,
2013-08-30 02:47:00,66.1,64.9,29.96,NNE,33,0.0,2.0,96,0.00,,CLR,0.00,VWS V14.01,2013-08-30 06:47:00,
2013-08-30 02:52:00,65.9,64.7,29.96,NNE,33,0.0,2.0,96,0.00,,CLR,0.00,VWS V14.01,2013-08-30 06:52:00,
2013-08-30 02:57:00,65.8,64.6,29.96,NE,34,0.0,2.0,96,0.00,,CLR,0.00,VWS V14.01,2013-08-30 06:57:00,
2013-08-30 03:02:00,65.8,64.6,29.96,NE,37,0.0,2.0,96,0.00,,,0.00,VWS V14.01,2013-08-30 07:02:00,
2013-08-30 03:07:00,65.8,64.6,29.96,NE,36,0.0,2.0,96,0.00,,,0.00,VWS V14.01,2013-08-30 07:07:00,
2013-08-30 03:12:00,65.7,64.5,29.96,NE,36,0.0,2.0,96,0.00,,,0.00,VWS V14.01,2013-08-30 07:12:00,
2013-08-30 03:17:00,65.6,64.4,29.96,NE,36,0.0,2.0,96,0.00,,,0.00,VWS V14.01,2013-08-30 07:17:00,
2013-08-30 03:22:00,65.5,64.6,29.96,NE,39,0.0,2.0,97,0.00,,,0.00,VWS V14.01,2013-08-30 07:22:00,
2013-08-30 03:27:00,65.4,64.2,29.96,NNE,30,0.0,2.0,96,0.00,,,0.00,VWS V14.01,2013-08-30 07:27:00,
2013-08-30 03:32:00,65.3,64.4,29.96,NNE,30,0.0,0.0,97,0.00,,FEW003,0.00,VWS V14.01,2013-08-30 07:32:00,
2013-08-30 03:37:00,65.2,64.3,29.96,NNE,30,0.0,0.0,97,0.00,,FEW003,0.00,VWS V14.01,2013-08-30 07:37:00,
2013-08-30 03:42:00,65.1,64.2,29.96,NE,44,0.0,0.0,97,0.00,,FEW003,0.00,VWS V14.01,2013-08-30 07:42:00,
2013-08-30 03:47:00,65.1,64.2,29.96,East,80,0.0,0.0,97,0.00,,FEW003,0.00,VWS V14.01,2013-08-30 07:47:00,
2013-08-30 03:52:00,65.0,64.1,29.95,East,80,0.0,0.0,97,0.00,,FEW003,0.00,VWS V14.01,2013-08-30 07:52:00,
2013-08-30 03:57:00,64.9,64.0,29.95,East,80,0.0,0.0,97,0.00,,FEW003,0.00,VWS V14.01,2013-08-30 07:57:00,
2013-08-30 04:02:00,64.8,63.9,29.95,East,80,0.0,0.0,97,0.00,,CLR,0.00,VWS V14.01,2013-08-30 08:02:00,
2013-08-30 04:07:00,64.8,63.9,29.95,NE,36,0.0,2.0,97,0.00,,CLR,0.00,VWS V14.01,2013-08-30 08:07:00,
2013-08-30 04:12:00,64.8,63.9,29.95,NNE,19,0.0,2.0,97,0.00,,CLR,0.00,VWS V14.01,2013-08-30 08:12:00,
2013-08-30 04:17:00,64.8,63.9,29.96,NNE,19,0.0,2.0,97,0.00,,CLR,0.00,VWS V14.01,2013-08-30 08:17:00,
2013-08-30 04:22:00,64.8,63.9,29.96,NNE,19,0.0,2.0,97,0.00,,CLR,0.00,VWS V14.01,2013-08-30 08:22:00,
2013-08-30 04:27:00,64.9,64.3,29.96,NNE,19,0.0,2.0,98,0.00,,CLR,0.00,VWS V14.01,2013-08-30 08:27:00,
2013-08-30 04:32:00,65.1,64.5,29.96,NNE,19,0.0,0.0,98,0.00,,,0.00,VWS V14.01,2013-08-30 08:32:00,
2013-08-30 04:37:00,65.2,64.6,29.96,NNE,19,0.0,0.0,98,0.00,,,0.00,VWS V14.01,2013-08-30 08:37:00,
2013-08-30 04:42:00,65.3,64.7,29.96,NNE,19,0.0,0.0,98,0.00,,,0.00,VWS V14.01,2013-08-30 08:42:00,
2013-08-30 04:47:00,65.3,64.7,29.95,NNE,19,0.0,0.0,98,0.00,,,0.00,VWS V14.01,2013-08-30 08:47:00,
2013-08-30 04:52:00,65.4,64.8,29.95,NNE,19,0.0,0.0,98,0.00,,,0.00,VWS V14.01,2013-08-30 08:52:00,
2013-08-30 04:57:00,65.5,64.9,29.95,NNE,19,0.0,0.0,98,0.00,,,0.00,VWS V14.01,2013-08-30 08:57:00,
2013-08-30 05:02:00,65.6,65.0,29.95,NNE,19,0.0,0.0,98,0.00,,OVC004,0.00,VWS V14.01,2013-08-30 09:02:00,
2013-08-30 05:07:00,65.6,65.0,29.96,NNE,19,0.0,0.0,98,0.00,,OVC004,0.00,VWS V14.01,2013-08-30 09:07:00,
2013-08-30 05:12:00,65.7,65.1,29.96,NNE,19,0.0,0.0,98,0.00,,OVC004,0.00,VWS V14.01,2013-08-30 09:12:00,
2013-08-30 05:17:00,65.8,65.2,29.96,NW,304,0.0,0.0,98,0.00,,OVC004,0.00,VWS V14.01,2013-08-30 09:17:00,
2013-08-30 05:22:00,65.8,65.2,29.96,NW,304,0.0,0.0,98,0.00,,OVC004,0.00,VWS V14.01,2013-08-30 09:22:00,
2013-08-30 05:27:00,65.8,65.2,29.96,NW,305,0.0,0.0,98,0.00,,OVC004,0.00,VWS V14.01,2013-08-30 09:27:00,
2013-08-30 05:32:00,65.9,65.3,29.96,West,276,0.0,0.0,98,0.00,,,0.00,VWS V14.01,2013-08-30 09:32:00,
2013-08-30 05:37:00,65.8,65.2,29.96,West,260,0.0,0.0,98,0.00,,,0.00,VWS V14.01,2013-08-30 09:37:00,
2013-08-30 05:42:00,65.7,65.1,29.96,West,281,0.0,0.0,98,0.00,,,0.00,VWS V14.01,2013-08-30 09:42:00,
2013-08-30 05:47:00,65.6,65.0,29.96,West,276,0.0,0.0,98,0.00,,,0.00,VWS V14.01,2013-08-30 09:47:00,
2013-08-30 05:52:00,65.4,64.8,29.96,West,279,0.0,0.0,98,0.00,,,0.00,VWS V14.01,2013-08-30 09:52:00,
2013-08-30 05:57:00,65.4,64.8,29.96,West,280,0.0,0.0,98,0.00,,,0.00,VWS V14.01,2013-08-30 09:57:00,
2013-08-30 06:02:00,65.4,64.8,29.96,West,279,0.0,0.0,98,0.00,,,0.00,VWS V14.01,2013-08-30 10:02:00,
2013-08-30 06:07:00,65.4,64.8,29.96,West,280,0.0,0.0,98,0.00,,,0.00,VWS V14.01,2013-08-30 10:07:00,
2013-08-30 06:12:00,65.4,64.8,29.96,West,280,0.0,0.0,98,0.00,,,0.00,VWS V14.01,2013-08-30 10:12:00,
2013-08-30 06:17:00,65.3,64.7,29.96,West,280,0.0,0.0,98,0.00,,,0.00,VWS V14.01,2013-08-30 10:17:00,
2013-08-30 06:22:00,65.3,64.7,29.97,West,280,0.0,0.0,98,0.00,,,0.00,VWS V14.01,2013-08-30 10:22:00,
2013-08-30 06:27:00,65.3,64.7,29.97,West,279,0.0,0.0,98,0.00,,,0.00,VWS V14.01,2013-08-30 10:27:00,
2013-08-30 06:32:00,65.2,64.6,29.97,WSW,253,0.0,0.0,98,0.00,,,0.00,VWS V14.01,2013-08-30 10:32:00,
2013-08-30 06:37:00,65.1,64.5,29.97,West,270,0.0,0.0,98,0.00,,,0.00,VWS V14.01,2013-08-30 10:37:00,
2013-08-30 06:42:00,65.0,64.4,29.97,West,270,0.0,0.0,98,0.00,,,0.00,VWS V14.01,2013-08-30 10:42:00,
2013-08-30 06:47:00,65.0,64.4,29.97,West,266,0.0,0.0,98,0.00,,,0.00,VWS V14.01,2013-08-30 10:47:00,
2013-08-30 06:52:00,65.0,64.4,29.97,West,266,0.0,0.0,98,0.00,,,0.00,VWS V14.01,2013-08-30 10:52:00,
2013-08-30 06:57:00,64.9,64.6,29.97,West,266,0.0,0.0,99,0.00,,,0.00,VWS V14.01,2013-08-30 10:57:00,
2013-08-30 07:02:00,64.8,64.2,29.97,West,271,1.0,1.0,98,0.00,,,0.00,VWS V14.01,2013-08-30 11:02:00,
2013-08-30 07:07:00,64.7,64.1,29.97,WNW,284,1.0,2.0,98,0.00,,,0.00,VWS V14.01,2013-08-30 11:07:00,
2013-08-30 07:12:00,64.7,64.1,29.97,WNW,284,0.0,2.0,98,0.00,,,0.00,VWS V14.01,2013-08-30 11:12:00,
2013-08-30 07:17:00,64.7,64.4,29.97,WNW,284,2.0,3.0,99,0.00,,,0.00,VWS V14.01,2013-08-30 11:17:00,
2013-08-30 07:22:00,64.7,64.4,29.97,WNW,294,2.0,5.0,99,0.00,,,0.00,VWS V14.01,2013-08-30 11:22:00,
2013-08-30 07:27:00,64.6,64.3,29.97,WNW,288,0.0,5.0,99,0.00,,,0.00,VWS V14.01,2013-08-30 11:27:00,
2013-08-30 07:32:00,64.6,64.3,29.97,WNW,288,0.0,0.0,99,0.00,,,0.00,VWS V14.01,2013-08-30 11:32:00,
2013-08-30 07:37:00,64.6,64.3,29.97,WNW,288,0.0,0.0,99,0.00,,,0.00,VWS V14.01,2013-08-30 11:37:00,
2013-08-30 07:42:00,64.7,64.4,29.97,WNW,288,0.0,0.0,99,0.00,,,0.00,VWS V14.01,2013-08-30 11:42:00,
2013-08-30 07:47:00,64.8,64.5,29.97,NW,305,0.0,3.0,99,0.00,,,0.00,VWS V14.01,2013-08-30 11:47:00,
2013-08-30 07:52:00,64.7,64.4,29.97,West,277,1.0,3.0,99,0.00,,,0.00,VWS V14.01,2013-08-30 11:52:00,
2013-08-30 07:57:00,64.8,64.5,29.97,West,276,0.0,3.0,99,0.00,,,0.00,VWS V14.01,2013-08-30 11:57:00,
2013-08-30 08:02:00,64.7,64.4,29.98,West,277,0.0,1.0,99,0.00,,,0.00,VWS V14.01,2013-08-30 12:02:00,
2013-08-30 08:07:00,64.7,64.4,29.98,West,275,0.0,2.0,99,0.00,,,0.00,VWS V14.01,2013-08-30 12:07:00,
2013-08-30 08:12:00,64.9,64.6,29.98,WNW,295,0.0,2.0,99,0.00,,,0.00,VWS V14.01,2013-08-30 12:12:00,
2013-08-30 08:17:00,64.9,64.6,29.98,NW,321,0.0,2.0,99,0.00,,,0.00,VWS V14.01,2013-08-30 12:17:00,
2013-08-30 08:22:00,64.8,64.5,29.98,WNW,286,0.0,3.0,99,0.00,,,0.00,VWS V14.01,2013-08-30 12:22:00,
2013-08-30 08:27:00,64.9,64.6,29.98,West,273,0.0,3.0,99,0.00,,,0.00,VWS V14.01,2013-08-30 12:27:00,
2013-08-30 08:32:00,64.9,64.6,29.98,West,281,0.0,0.0,99,0.00,,,0.00,VWS V14.01,2013-08-30 12:32:00,
2013-08-30 08:37:00,65.1,64.8,29.97,West,274,0.0,0.0,99,0.00,,,0.00,VWS V14.01,2013-08-30 12:37:00,
2013-08-30 08:42:00,65.2,64.9,29.97,West,274,0.0,0.0,99,0.00,,,0.00,VWS V14.01,2013-08-30 12:42:00,
2013-08-30 08:47:00,65.3,65.0,29.97,West,274,0.0,0.0,99,0.00,,,0.00,VWS V14.01,2013-08-30 12:47:00,
2013-08-30 08:52:00,65.4,64.8,29.97,West,274,0.0,0.0,98,0.00,,,0.00,VWS V14.01,2013-08-30 12:52:00,
2013-08-30 08:57:00,65.5,64.9,29.98,WNW,288,3.0,3.0,98,0.00,,,0.00,VWS V14.01,2013-08-30 12:57:00,
2013-08-30 09:02:00,65.5,64.9,29.97,West,280,0.0,3.0,98,0.00,,,0.00,VWS V14.01,2013-08-30 13:02:00,
2013-08-30 09:07:00,65.7,65.1,29.98,West,269,1.0,3.0,98,0.00,,,0.00,VWS V14.01,2013-08-30 13:07:00,
2013-08-30 09:12:00,66.0,65.4,29.97,WNW,293,2.0,3.0,98,0.00,,,0.00,VWS V14.01,2013-08-30 13:12:00,
2013-08-30 09:17:00,66.0,65.4,29.97,WNW,284,0.0,3.0,98,0.00,,,0.00,VWS V14.01,2013-08-30 13:17:00,
2013-08-30 09:21:00,66.2,65.6,29.97,WNW,286,3.0,3.0,98,0.00,,,0.00,VWS V14.01,2013-08-30 13:21:00,
2013-08-30 09:26:00,66.3,65.7,29.98,WNW,290,0.0,3.0,98,0.00,,,0.00,VWS V14.01,2013-08-30 13:26:00,
2013-08-30 09:31:00,66.5,65.6,29.98,WNW,290,0.0,1.0,97,0.00,,,0.00,VWS V14.01,2013-08-30 13:31:00,
2013-08-30 09:36:00,66.6,65.7,29.98,WNW,285,0.0,3.0,97,0.00,,,0.00,VWS V14.01,2013-08-30 13:36:00,
2013-08-30 09:41:00,67.0,66.1,29.98,SSW,203,0.0,3.0,97,0.00,,,0.00,VWS V14.01,2013-08-30 13:41:00,
2013-08-30 09:46:00,67.4,66.5,29.98,SSW,212,0.0,3.0,97,0.00,,,0.00,VWS V14.01,2013-08-30 13:46:00,
2013-08-30 09:51:00,67.9,66.7,29.97,SW,222,0.0,3.0,96,0.00,,,0.00,VWS V14.01,2013-08-30 13:51:00,
2013-08-30 09:56:00,67.8,66.0,29.97,WNW,290,1.0,5.0,94,0.00,,,0.00,VWS V14.01,2013-08-30 13:56:00,
2013-08-30 10:01:00,67.8,66.0,29.97,WNW,289,0.0,1.0,94,0.00,,,0.00,VWS V14.01,2013-08-30 14:01:00,
2013-08-30 10:06:00,68.1,66.6,29.97,SSW,213,0.0,1.0,95,0.00,,,0.00,VWS V14.01,2013-08-30 14:06:00,
2013-08-30 10:11:00,68.5,66.7,29.97,WNW,294,3.0,5.0,94,0.00,,,0.00,VWS V14.01,2013-08-30 14:11:00,
2013-08-30 10:16:00,68.5,66.4,29.97,West,278,1.0,5.0,93,0.00,,,0.00,VWS V14.01,2013-08-30 14:16:00,
2013-08-30 10:21:00,68.6,66.5,29.97,WNW,290,0.0,5.0,93,0.00,,,0.00,VWS V14.01,2013-08-30 14:21:00,
2013-08-30 10:26:00,69.1,67.0,29.97,West,267,2.0,5.0,93,0.00,,,0.00,VWS V14.01,2013-08-30 14:26:00,
2013-08-30 10:31:00,69.6,67.2,29.97,SE,134,0.0,1.0,92,0.00,,,0.00,VWS V14.01,2013-08-30 14:31:00,
2013-08-30 10:36:00,69.9,67.2,29.97,South,191,0.0,3.0,91,0.00,,,0.00,VWS V14.01,2013-08-30 14:36:00,
2013-08-30 10:41:00,70.3,67.2,29.97,SSW,211,0.0,3.0,90,0.00,,,0.00,VWS V14.01,2013-08-30 14:41:00,
2013-08-30 10:46:00,70.7,67.6,29.96,West,274,1.0,3.0,90,0.00,,,0.00,VWS V14.01,2013-08-30 14:46:00,
2013-08-30 10:51:00,70.8,67.4,29.96,SW,217,3.0,3.0,89,0.00,,,0.00,VWS V14.01,2013-08-30 14:51:00,
2013-08-30 10:56:00,71.3,68.2,29.96,SW,219,2.0,3.0,90,0.00,,,0.00,VWS V14.01,2013-08-30 14:56:00,
2013-08-30 11:01:00,72.2,69.1,29.96,SW,221,0.0,1.0,90,0.00,,,0.00,VWS V14.01,2013-08-30 15:01:00,
2013-08-30 11:06:00,73.4,69.0,29.96,SW,232,0.0,3.0,86,0.00,,,0.00,VWS V14.01,2013-08-30 15:06:00,
2013-08-30 11:11:00,73.5,69.1,29.95,WSW,248,0.0,3.0,86,0.00,,,0.00,VWS V14.01,2013-08-30 15:11:00,
2013-08-30 11:16:00,73.7,68.9,29.95,WSW,250,0.0,3.0,85,0.00,,,0.00,VWS V14.01,2013-08-30 15:16:00,
2013-08-30 11:21:00,74.8,69.3,29.95,SSE,149,2.0,3.0,83,0.00,,,0.00,VWS V14.01,2013-08-30 15:21:00,
2013-08-30 11:26:00,74.5,68.7,29.94,ESE,115,2.0,5.0,82,0.00,,,0.00,VWS V14.01,2013-08-30 15:26:00,
2013-08-30 11:31:00,74.6,69.1,29.94,NE,44,1.0,1.0,83,0.00,,,0.00,VWS V14.01,2013-08-30 15:31:00,
2013-08-30 11:36:00,75.4,69.5,29.93,WSW,238,0.0,2.0,82,0.00,,,0.00,VWS V14.01,2013-08-30 15:36:00,
2013-08-30 11:41:00,75.9,69.7,29.93,NE,37,0.0,4.0,81,0.00,,,0.00,VWS V14.01,2013-08-30 15:41:00,
2013-08-30 11:46:00,76.1,69.8,29.93,ESE,104,0.0,4.0,81,0.00,,,0.00,VWS V14.01,2013-08-30 15:46:00,
2013-08-30 11:51:00,76.9,69.9,29.93,SSE,155,0.0,4.0,79,0.00,,,0.00,VWS V14.01,2013-08-30 15:51:00,
2013-08-30 11:56:00,78.1,70.3,29.93,East,98,0.0,4.0,77,0.00,,,0.00,VWS V14.01,2013-08-30 15:56:00,
2013-08-30 12:01:00,78.3,70.9,29.92,SW,233,0.0,1.0,78,0.00,,FEW006,0.00,VWS V14.01,2013-08-30 16:01:00,
2013-08-30 12:06:00,78.4,70.2,29.92,NE,37,2.0,3.0,76,0.00,,FEW006,0.00,VWS V14.01,2013-08-30 16:06:00,
2013-08-30 12:11:00,78.4,70.6,29.92,SSW,203,3.0,3.0,77,0.00,,FEW006,0.00,VWS V14.01,2013-08-30 16:11:00,
2013-08-30 12:16:00,78.9,71.1,29.92,WSW,240,1.0,3.0,77,0.00,,FEW006,0.00,VWS V14.01,2013-08-30 16:16:00,
2013-08-30 12:21:00,79.3,71.5,29.91,South,188,1.0,4.0,77,0.00,,FEW006,0.00,VWS V14.01,2013-08-30 16:21:00,
2013-08-30 12:26:00,79.9,70.9,29.91,WSW,256,0.0,4.0,74,0.00,,FEW006,0.00,VWS V14.01,2013-08-30 16:26:00,
2013-08-30 12:31:00,80.5,71.5,29.91,East,89,0.0,2.0,74,0.00,,FEW006,0.00,VWS V14.01,2013-08-30 16:31:00,
2013-08-30 12:36:00,80.9,71.8,29.90,SW,226,2.0,5.0,74,0.00,,FEW006,0.00,VWS V14.01,2013-08-30 16:36:00,
2013-08-30 12:41:00,81.3,71.8,29.90,East,84,0.0,5.0,73,0.00,,FEW006,0.00,VWS V14.01,2013-08-30 16:41:00,
2013-08-30 12:46:00,81.5,72.4,29.90,East,97,0.0,5.0,74,0.00,,FEW006,0.00,VWS V14.01,2013-08-30 16:46:00,
2013-08-30 12:51:00,81.6,72.1,29.90,West,260,0.0,5.0,73,0.00,,FEW006,0.00,VWS V14.01,2013-08-30 16:51:00,
2013-08-30 12:56:00,82.1,72.2,29.89,South,172,1.0,5.0,72,0.00,,FEW006,0.00,VWS V14.01,2013-08-30 16:56:00,
2013-08-30 13:01:00,82.5,72.6,29.89,ENE,63,1.0,2.0,72,0.00,,FEW,0.00,VWS V14.01,2013-08-30 17:01:00,
2013-08-30 13:06:00,83.4,73.0,29.89,ENE,68,0.0,4.0,71,0.00,,FEW,0.00,VWS V14.01,2013-08-30 17:06:00,
2013-08-30 13:11:00,83.9,72.7,29.89,SSW,212,3.0,4.0,69,0.00,,FEW,0.00,VWS V14.01,2013-08-30 17:11:00,
2013-08-30 13:16:00,84.1,72.8,29.89,East,91,1.0,4.0,69,0.00,,FEW,0.00,VWS V14.01,2013-08-30 17:16:00,
2013-08-30 13:21:00,84.1,71.5,29.89,East,82,1.0,4.0,66,0.00,,FEW,0.00,VWS V14.01,2013-08-30 17:21:00,
2013-08-30 13:26:00,84.2,72.5,29.89,SSW,210,0.0,4.0,68,0.00,,FEW,0.00,VWS V14.01,2013-08-30 17:26:00,
2013-08-30 13:31:00,84.8,71.7,29.89,East,79,0.0,0.0,65,0.00,,FEW,0.00,VWS V14.01,2013-08-30 17:31:00,
2013-08-30 13:36:00,85.3,71.8,29.88,SW,214,1.0,2.0,64,0.00,,FEW,0.00,VWS V14.01,2013-08-30 17:36:00,
2013-08-30 13:41:00,85.4,70.4,29.88,East,84,3.0,3.0,61,0.00,,FEW,0.00,VWS V14.01,2013-08-30 17:41:00,
2013-08-30 13:46:00,85.2,71.7,29.88,ENE,64,1.0,5.0,64,0.00,,FEW,0.00,VWS V14.01,2013-08-30 17:46:00,
2013-08-30 13:51:00,86.0,71.5,29.87,South,176,2.0,5.0,62,0.00,,FEW,0.00,VWS V14.01,2013-08-30 17:51:00,
2013-08-30 13:56:00,86.1,71.6,29.87,ESE,111,5.0,5.0,62,0.00,,FEW,0.00,VWS V14.01,2013-08-30 17:56:00,
2013-08-30 14:01:00,85.5,70.5,29.87,ESE,108,1.0,6.0,61,0.00,,FEW,0.00,VWS V14.01,2013-08-30 18:01:00,
2013-08-30 14:06:00,85.9,70.9,29.86,ESE,111,4.0,6.0,61,0.00,,FEW,0.00,VWS V14.01,2013-08-30 18:06:00,
2013-08-30 14:11:00,86.8,71.8,29.86,SW,224,2.0,6.0,61,0.00,,FEW,0.00,VWS V14.01,2013-08-30 18:11:00,
2013-08-30 14:16:00,88.1,72.0,29.86,SW,228,2.0,8.0,59,0.00,,FEW,0.00,VWS V14.01,2013-08-30 18:16:00,
2013-08-30 14:21:00,88.5,70.8,29.86,SW,226,6.0,8.0,56,0.00,,FEW,0.00,VWS V14.01,2013-08-30 18:21:00,
2013-08-30 14:26:00,88.8,72.1,29.86,WSW,240,1.0,8.0,58,0.00,,FEW,0.00,VWS V14.01,2013-08-30 18:26:00,
2013-08-30 14:31:00,89.5,71.7,29.86,SSW,194,0.0,2.0,56,0.00,,FEW,0.00,VWS V14.01,2013-08-30 18:31:00,
2013-08-30 14:36:00,90.0,71.1,29.85,SSW,194,4.0,4.0,54,0.00,,FEW,0.00,VWS V14.01,2013-08-30 18:36:00,
2013-08-30 14:41:00,90.0,66.5,29.85,WNW,290,6.0,8.0,46,0.00,,FEW,0.00,VWS V14.01,2013-08-30 18:41:00,
2013-08-30 14:46:00,89.8,66.9,29.85,WSW,252,3.0,8.0,47,0.00,,FEW,0.00,VWS V14.01,2013-08-30 18:46:00,
2013-08-30 14:51:00,90.1,67.2,29.85,West,278,6.0,8.0,47,0.00,,FEW,0.00,VWS V14.01,2013-08-30 18:51:00,
2013-08-30 14:56:00,90.2,67.3,29.84,WNW,292,5.0,9.0,47,0.00,,FEW,0.00,VWS V14.01,2013-08-30 18:56:00,
2013-08-30 15:01:00,90.3,66.7,29.84,NW,309,6.0,8.0,46,0.00,,FEW,0.00,VWS V14.01,2013-08-30 19:01:00,
2013-08-30 15:06:00,90.3,68.0,29.84,WNW,292,3.0,10.0,48,0.00,,FEW,0.00,VWS V14.01,2013-08-30 19:06:00,
2013-08-30 15:11:00,90.6,66.4,29.84,WNW,287,3.0,10.0,45,0.00,,FEW,0.00,VWS V14.01,2013-08-30 19:11:00,
2013-08-30 15:16:00,90.7,66.5,29.83,WNW,288,8.0,13.0,45,0.00,,FEW,0.00,VWS V14.01,2013-08-30 19:16:00,
2013-08-30 15:21:00,90.8,66.6,29.83,North,9,3.0,13.0,45,0.00,,FEW,0.00,VWS V14.01,2013-08-30 19:21:00,
2013-08-30 15:26:00,90.9,66.6,29.83,WSW,240,3.0,13.0,45,0.00,,FEW,0.00,VWS V14.01,2013-08-30 19:26:00,
2013-08-30 15:31:00,90.9,67.3,29.83,West,278,8.0,12.0,46,0.00,,FEW,0.00,VWS V14.01,2013-08-30 19:31:00,
2013-08-30 15:36:00,90.8,66.6,29.83,WNW,293,2.0,13.0,45,0.00,,FEW,0.00,VWS V14.01,2013-08-30 19:36:00,
2013-08-30 15:41:00,91.0,67.4,29.83,WNW,299,3.0,13.0,46,0.00,,FEW,0.00,VWS V14.01,2013-08-30 19:41:00,
2013-08-30 15:46:00,90.8,67.8,29.83,WNW,284,5.0,13.0,47,0.00,,FEW,0.00,VWS V14.01,2013-08-30 19:46:00,
2013-08-30 15:51:00,90.6,67.6,29.83,West,271,2.0,13.0,47,0.00,,FEW,0.00,VWS V14.01,2013-08-30 19:51:00,
2013-08-30 15:56:00,90.6,68.2,29.83,WNW,283,4.0,13.0,48,0.00,,FEW,0.00,VWS V14.01,2013-08-30 19:56:00,
2013-08-30 16:01:00,90.5,67.5,29.83,SSW,212,1.0,3.0,47,0.00,,FEW040,0.00,VWS V14.01,2013-08-30 20:01:00,
2013-08-30 16:06:00,90.8,67.8,29.82,WNW,299,4.0,7.0,47,0.00,,FEW040,0.00,VWS V14.01,2013-08-30 20:06:00,
2013-08-30 16:11:00,90.7,69.5,29.83,SSW,204,4.0,8.0,50,0.00,,FEW040,0.00,VWS V14.01,2013-08-30 20:11:00,
2013-08-30 16:16:00,90.6,68.2,29.82,West,269,1.0,8.0,48,0.00,,FEW040,0.00,VWS V14.01,2013-08-30 20:16:00,
2013-08-30 16:21:00,91.2,68.8,29.82,WNW,282,4.0,8.0,48,0.00,,FEW040,0.00,VWS V14.01,2013-08-30 20:21:00,
2013-08-30 16:26:00,90.8,67.2,29.82,WSW,240,1.0,10.0,46,0.00,,FEW040,0.00,VWS V14.01,2013-08-30 20:26:00,
2013-08-30 16:31:00,90.2,67.9,29.82,WNW,297,5.0,6.0,48,0.00,,FEW040,0.00,VWS V14.01,2013-08-30 20:31:00,
2013-08-30 16:36:00,90.2,67.9,29.82,West,270,5.0,7.0,48,0.00,,FEW040,0.00,VWS V14.01,2013-08-30 20:36:00,
2013-08-30 16:41:00,89.9,67.6,29.82,WNW,284,5.0,7.0,48,0.00,,FEW040,0.00,VWS V14.01,2013-08-30 20:41:00,
2013-08-30 16:46:00,89.8,68.1,29.82,West,280,3.0,7.0,49,0.00,,FEW040,0.00,VWS V14.01,2013-08-30 20:46:00,
2013-08-30 16:51:00,90.3,69.2,29.82,WNW,291,1.0,7.0,50,0.00,,FEW040,0.00,VWS V14.01,2013-08-30 20:51:00,
2013-08-30 16:56:00,90.5,68.2,29.82,WNW,290,1.0,7.0,48,0.00,,FEW040,0.00,VWS V14.01,2013-08-30 20:56:00,
2013-08-30 17:01:00,90.2,67.9,29.82,WNW,284,7.0,9.0,48,0.00,,FEW070,0.00,VWS V14.01,2013-08-30 21:01:00,
2013-08-30 17:06:00,89.9,68.2,29.81,WNW,283,4.0,9.0,49,0.00,,FEW070,0.00,VWS V14.01,2013-08-30 21:06:00,
2013-08-30 17:11:00,89.6,68.5,29.81,SW,231,2.0,9.0,50,0.00,,FEW070,0.00,VWS V14.01,2013-08-30 21:11:00,
2013-08-30 17:16:00,89.5,67.8,29.81,WNW,285,4.0,9.0,49,0.00,,FEW070,0.00,VWS V14.01,2013-08-30 21:16:00,
2013-08-30 17:21:00,89.4,68.3,29.81,West,281,2.0,9.0,50,0.00,,FEW070,0.00,VWS V14.01,2013-08-30 21:21:00,
2013-08-30 17:26:00,89.3,68.2,29.80,SSW,201,3.0,9.0,50,0.00,,FEW070,0.00,VWS V14.01,2013-08-30 21:26:00,
2013-08-30 17:31:00,89.2,68.2,29.80,SW,222,1.0,2.0,50,0.00,,FEW070,0.00,VWS V14.01,2013-08-30 21:31:00,
2013-08-30 17:36:00,89.1,68.1,29.80,WNW,285,2.0,5.0,50,0.00,,FEW070,0.00,VWS V14.01,2013-08-30 21:36:00,
2013-08-30 17:41:00,89.1,68.6,29.80,WNW,300,3.0,5.0,51,0.00,,FEW070,0.00,VWS V14.01,2013-08-30 21:41:00,
2013-08-30 17:46:00,88.9,68.4,29.80,SW,215,3.0,5.0,51,0.00,,FEW070,0.00,VWS V14.01,2013-08-30 21:46:00,
2013-08-30 17:51:00,88.8,69.5,29.80,WSW,238,2.0,5.0,53,0.00,,FEW070,0.00,VWS V14.01,2013-08-30 21:51:00,
2013-08-30 17:56:00,88.6,69.3,29.80,WSW,256,1.0,5.0,53,0.00,,FEW070,0.00,VWS V14.01,2013-08-30 21:56:00,
2013-08-30 18:01:00,88.5,68.6,29.80,WNW,289,2.0,4.0,52,0.00,,FEW070,0.00,VWS V14.01,2013-08-30 22:01:00,
2013-08-30 18:06:00,88.3,68.5,29.80,West,272,1.0,4.0,52,0.00,,FEW070,0.00,VWS V14.01,2013-08-30 22:06:00,
2013-08-30 18:11:00,88.0,69.3,29.79,WSW,249,0.0,4.0,54,0.00,,FEW070,0.00,VWS V14.01,2013-08-30 22:11:00,
2013-08-30 18:16:00,87.7,69.5,29.79,SW,215,2.0,5.0,55,0.00,,FEW070,0.00,VWS V14.01,2013-08-30 22:16:00,
2013-08-30 18:21:00,87.1,70.5,29.79,SW,217,3.0,5.0,58,0.00,,FEW070,0.00,VWS V14.01,2013-08-30 22:21:00,
2013-08-30 18:26:00,87.2,69.6,29.78,SW,219,1.0,5.0,56,0.00,,FEW070,0.00,VWS V14.01,2013-08-30 22:26:00,
2013-08-30 18:31:00,87.5,69.4,29.78,SW,225,1.0,2.0,55,0.00,,FEW070,0.00,VWS V14.01,2013-08-30 22:31:00,
2013-08-30 18:36:00,87.5,68.8,29.77,SSW,205,1.0,5.0,54,0.00,,FEW070,0.00,VWS V14.01,2013-08-30 22:36:00,
2013-08-30 18:41:00,87.3,68.1,29.77,SW,227,5.0,8.0,53,0.00,,FEW070,0.00,VWS V14.01,2013-08-30 22:41:00,
2013-08-30 18:46:00,87.1,67.9,29.77,WSW,242,2.0,8.0,53,0.00,,FEW070,0.00,VWS V14.01,2013-08-30 22:46:00,
2013-08-30 18:51:00,87.1,67.9,29.76,South,186,2.0,9.0,53,0.00,,FEW070,0.00,VWS V14.01,2013-08-30 22:51:00,
2013-08-30 18:56:00,87.0,68.9,29.76,SE,143,2.0,9.0,55,0.00,,FEW070,0.00,VWS V14.01,2013-08-30 22:56:00,
2013-08-30 19:01:00,86.7,69.1,29.76,SW,228,2.0,3.0,56,0.00,,CLR,0.00,VWS V14.01,2013-08-30 23:01:00,
2013-08-30 19:06:00,86.6,68.0,29.76,SW,219,4.0,10.0,54,0.00,,CLR,0.00,VWS V14.01,2013-08-30 23:06:00,
2013-08-30 19:11:00,86.7,67.0,29.76,SW,224,4.0,10.0,52,0.00,,CLR,0.00,VWS V14.01,2013-08-30 23:11:00,
2013-08-30 19:16:00,86.5,67.3,29.76,South,173,4.0,10.0,53,0.00,,CLR,0.00,VWS V14.01,2013-08-30 23:16:00,
2013-08-30 19:21:00,85.8,68.3,29.76,SW,215,3.0,10.0,56,0.00,,CLR,0.00,VWS V14.01,2013-08-30 23:21:00,
2013-08-30 19:26:00,85.2,68.3,29.76,SW,225,4.0,10.0,57,0.00,,CLR,0.00,VWS V14.01,2013-08-30 23:26:00,
2013-08-30 19:30:00,84.7,68.3,29.77,SW,231,2.0,3.0,58,0.00,,CLR,0.00,VWS V14.01,2013-08-30 23:30:00,
2013-08-30 19:35:00,84.5,67.1,29.77,SSW,211,3.0,6.0,56,0.00,,CLR,0.00,VWS V14.01,2013-08-30 23:35:00,
2013-08-30 19:40:00,84.3,67.9,29.77,SSW,210,2.0,6.0,58,0.00,,CLR,0.00,VWS V14.01,2013-08-30 23:40:00,
2013-08-30 19:45:00,83.4,68.6,29.78,SSW,200,3.0,6.0,61,0.00,,CLR,0.00,VWS V14.01,2013-08-30 23:45:00,
2013-08-30 19:50:00,83.1,67.3,29.78,South,190,3.0,6.0,59,0.00,,CLR,0.00,VWS V14.01,2013-08-30 23:50:00,
2013-08-30 19:55:00,83.1,66.8,29.78,WSW,257,0.0,6.0,58,0.00,,CLR,0.00,VWS V14.01,2013-08-30 23:55:00,
2013-08-30 20:00:00,82.8,67.0,29.78,SSE,160,0.0,1.0,59,0.00,,CLR,0.00,VWS V14.01,2013-08-31 00:00:00,
2013-08-30 20:05:00,82.4,66.7,29.79,SSE,160,0.0,1.0,59,0.00,,CLR,0.00,VWS V14.01,2013-08-31 00:05:00,
2013-08-30 20:10:00,82.2,67.4,29.79,SSE,160,0.0,1.0,61,0.00,,CLR,0.00,VWS V14.01,2013-08-31 00:10:00,
2013-08-30 20:15:00,81.9,68.1,29.79,SSE,152,0.0,1.0,63,0.00,,CLR,0.00,VWS V14.01,2013-08-31 00:15:00,
2013-08-30 20:20:00,81.4,68.5,29.79,East,97,0.0,1.0,65,0.00,,CLR,0.00,VWS V14.01,2013-08-31 00:20:00,
2013-08-30 20:25:00,81.0,68.6,29.79,East,98,0.0,1.0,66,0.00,,CLR,0.00,VWS V14.01,2013-08-31 00:25:00,
2013-08-30 20:30:00,80.7,67.8,29.79,East,97,0.0,0.0,65,0.00,,CLR,0.00,VWS V14.01,2013-08-31 00:30:00,
2013-08-30 20:35:00,80.3,67.9,29.79,East,97,0.0,0.0,66,0.00,,CLR,0.00,VWS V14.01,2013-08-31 00:35:00,
2013-08-30 20:40:00,80.0,68.1,29.79,SW,224,0.0,2.0,67,0.00,,CLR,0.00,VWS V14.01,2013-08-31 00:40:00,
2013-08-30 20:45:00,79.4,68.3,29.79,SW,223,0.0,2.0,69,0.00,,CLR,0.00,VWS V14.01,2013-08-31 00:45:00,
2013-08-30 20:50:00,79.0,68.4,29.79,ESE,108,0.0,2.0,70,0.00,,CLR,0.00,VWS V14.01,2013-08-31 00:50:00,
2013-08-30 20:55:00,78.7,68.1,29.79,ESE,109,0.0,2.0,70,0.00,,CLR,0.00,VWS V14.01,2013-08-31 00:55:00,
2013-08-30 21:00:00,78.5,68.3,29.79,ESE,108,0.0,0.0,71,0.00,,CLR,0.00,VWS V14.01,2013-08-31 01:00:00,
2013-08-30 21:05:00,78.2,68.4,29.79,East,94,0.0,0.0,72,0.00,,CLR,0.00,VWS V14.01,2013-08-31 01:05:00,
2013-08-30 21:10:00,77.9,68.2,29.79,East,94,0.0,0.0,72,0.00,,CLR,0.00,VWS V14.01,2013-08-31 01:10:00,
2013-08-30 21:15:00,77.8,68.1,29.79,ESE,103,0.0,1.0,72,0.00,,CLR,0.00,VWS V14.01,2013-08-31 01:15:00,
2013-08-30 21:20:00,77.6,67.9,29.79,ESE,103,0.0,1.0,72,0.00,,CLR,0.00,VWS V14.01,2013-08-31 01:20:00,
2013-08-30 21:25:00,77.4,67.7,29.80,NE,44,0.0,1.0,72,0.00,,CLR,0.00,VWS V14.01,2013-08-31 01:25:00,
2013-08-30 21:30:00,77.2,68.3,29.80,NE,44,1.0,2.0,74,0.00,,CLR,0.00,VWS V14.01,2013-08-31 01:30:00,
2013-08-30 21:35:00,77.1,68.6,29.80,NE,48,0.0,2.0,75,0.00,,CLR,0.00,VWS V14.01,2013-08-31 01:35:00,
2013-08-30 21:40:00,76.9,68.8,29.80,NE,44,2.0,5.0,76,0.00,,CLR,0.00,VWS V14.01,2013-08-31 01:40:00,
2013-08-30 21:45:00,76.6,68.9,29.80,East,84,0.0,5.0,77,0.00,,CLR,0.00,VWS V14.01,2013-08-31 01:45:00,
2013-08-30 21:50:00,76.3,68.9,29.80,East,87,0.0,5.0,78,0.00,,CLR,0.00,VWS V14.01,2013-08-31 01:50:00,
2013-08-30 21:55:00,76.1,69.1,29.80,East,90,0.0,5.0,79,0.00,,CLR,0.00,VWS V14.01,2013-08-31 01:55:00,
2013-08-30 22:00:00,75.8,69.2,29.80,East,91,0.0,1.0,80,0.00,,BKN065,0.00,VWS V14.01,2013-08-31 02:00:00,
2013-08-30 22:05:00,75.6,69.4,29.80,East,84,0.0,2.0,81,0.00,,BKN065,0.00,VWS V14.01,2013-08-31 02:05:00,
2013-08-30 22:10:00,75.4,69.2,29.80,East,95,0.0,2.0,81,0.00,,BKN065,0.00,VWS V14.01,2013-08-31 02:10:00,
2013-08-30 22:15:00,75.3,69.4,29.79,NE,56,2.0,2.0,82,0.00,,BKN065,0.00,VWS V14.01,2013-08-31 02:15:00,
2013-08-30 22:20:00,75.3,69.4,29.79,NE,37,2.0,4.0,82,0.00,,BKN065,0.00,VWS V14.01,2013-08-31 02:20:00,
2013-08-30 22:25:00,75.2,69.3,29.79,ESE,102,1.0,4.0,82,0.00,,BKN065,0.00,VWS V14.01,2013-08-31 02:25:00,
2013-08-30 22:30:00,75.1,69.6,29.79,NNE,13,1.0,1.0,83,0.00,,BKN065,0.00,VWS V14.01,2013-08-31 02:30:00,
2013-08-30 22:35:00,74.9,69.4,29.79,East,84,1.0,4.0,83,0.00,,BKN065,0.00,VWS V14.01,2013-08-31 02:35:00,
2013-08-30 22:40:00,74.7,69.6,29.79,ENE,64,0.0,4.0,84,0.00,,BKN065,0.00,VWS V14.01,2013-08-31 02:40:00,
2013-08-30 22:45:00,74.6,69.4,29.79,NNE,27,0.0,4.0,84,0.00,,BKN065,0.00,VWS V14.01,2013-08-31 02:45:00,
2013-08-30 22:50:00,74.5,69.3,29.79,NE,40,3.0,5.0,84,0.00,,BKN065,0.00,VWS V14.01,2013-08-31 02:50:00,
2013-08-30 22:55:00,74.5,69.3,29.79,East,84,1.0,5.0,84,0.00,,BKN065,0.00,VWS V14.01,2013-08-31 02:55:00,
2013-08-30 23:00:00,74.4,69.3,29.79,ESE,106,2.0,5.0,84,0.00,,BKN075,0.00,VWS V14.01,2013-08-31 03:00:00,
2013-08-30 23:05:00,74.2,69.4,29.80,East,94,0.0,2.0,85,0.00,,BKN075,0.00,VWS V14.01,2013-08-31 03:05:00,
2013-08-30 23:10:00,74.2,69.4,29.80,NE,36,0.0,3.0,85,0.00,,BKN075,0.00,VWS V14.01,2013-08-31 03:10:00,
2013-08-30 23:15:00,74.0,69.2,29.80,NNE,27,2.0,3.0,85,0.00,,BKN075,0.00,VWS V14.01,2013-08-31 03:15:00,
2013-08-30 23:20:00,73.9,69.4,29.80,NE,36,2.0,4.0,86,0.00,,BKN075,0.00,VWS V14.01,2013-08-31 03:20:00,
2013-08-30 23:25:00,73.9,69.4,29.79,East,84,0.0,4.0,86,0.00,,BKN075,0.00,VWS V14.01,2013-08-31 03:25:00,
2013-08-30 23:30:00,73.8,69.3,29.79,NE,44,0.0,4.0,86,0.00,,BKN075,0.00,VWS V14.01,2013-08-31 03:30:00,
2013-08-30 23:35:00,73.7,69.3,29.79,NE,44,0.0,0.0,86,0.00,,BKN075,0.00,VWS V14.01,2013-08-31 03:35:00,
2013-08-30 23:40:00,73.7,69.3,29.79,NE,44,0.0,1.0,86,0.00,,BKN075,0.00,VWS V14.01,2013-08-31 03:40:00,
2013-08-30 23:45:00,73.6,69.5,29.79,NE,44,0.0,1.0,87,0.00,,BKN075,0.00,VWS V14.01,2013-08-31 03:45:00,
2013-08-30 23:50:00,73.5,69.4,29.78,NE,39,1.0,3.0,87,0.00,,BKN075,0.00,VWS V14.01,2013-08-31 03:50:00,
2013-08-30 23:55:00,73.4,69.3,29.79,NNE,18,2.0,3.0,87,0.00,,BKN075,0.00,VWS V14.01,2013-08-31 03:55:00,